M.P.E.C. 2020-O72 Issued 2020 July 23, 14:21 UT The Minor Planet Electronic Circulars contain information on unusual minor planets and routine data on comets. They are published on behalf of Division F of the International Astronomical Union by the Minor Planet Center, Smithsonian Astrophysical Observatory, Cambridge, MA 02138, U.S.A. Prepared using the Tamkin Foundation Computer Network MPC@CFA.HARVARD.EDU URL https://www.minorplanetcenter.net/ ISSN 1523-6714 2015 BE518 Additional Observations: K15Bp8E C2011 01 15.54246 09 05 59.253+32 19 43.25 22.2 GVEO072F51 K15Bp8E C2011 01 15.54995 09 05 59.186+32 19 44.05 21.6 GVEO072F51 K15Bp8E C2012 02 28.30424 09 14 15.263+31 05 27.88 21.6 GVEO072F51 K15Bp8E C2012 02 28.31620 09 14 15.156+31 05 27.99 22.0 GVEO072F51 K15Bp8E KC2012 12 27.54896 09 39 00.285+28 37 56.88 22.6 GVEO072F51 K15Bp8E C2013 01 03.59978 09 38 14.248+28 43 49.11 21.8 GVEO072F51 K15Bp8E C2013 01 03.61131 09 38 14.148+28 43 49.52 22.0 GVEO072F51 K15Bp8E C2013 01 10.58587 09 37 21.537+28 49 40.19 21.8 GVEO072F51 K15Bp8E C2013 01 10.59798 09 37 21.395+28 49 41.53 20.9 GVEO072F51 K15Bp8E C2013 02 21.37772 09 30 46.376+29 17 39.61 21.8 GVEO072F51 K15Bp8E C2013 02 21.38952 09 30 46.268+29 17 40.41 21.2 GVEO072F51 K15Bp8E KC2013 11 22.56696 09 55 40.927+26 14 08.01 21.6 GVEO072F51 K15Bp8E C2013 12 17.56035 09 55 18.101+26 28 24.57 22.3 GVEO072F51 K15Bp8E C2013 12 17.58272 09 55 18.013+26 28 24.89 22.0 GVEO072F51 K15Bp8E C2014 03 25.24702 09 42 03.333+27 25 56.87 21.9 wLEO072F51 K15Bp8E C2014 03 25.25895 09 42 03.254+27 25 56.84 21.8 wLEO072F51 K15Bp8E C2014 03 25.27090 09 42 03.184+27 25 56.77 21.8 wLEO072F51 K15Bp8E C2014 03 25.28295 09 42 03.095+27 25 56.88 21.9 wLEO072F51 K15Bp8E C2014 06 07.27614 09 41 56.622+26 33 07.11 21.9 GVEO072F51 K15Bp8E C2014 06 07.28979 09 41 56.722+26 33 05.74 22.6 GVEO072F51 K15Bp8E C2014 06 07.30343 09 41 56.829+26 33 04.43 21.5 GVEO072F51 K15Bp8E C2014 12 08.57131 10 11 10.668+24 09 18.18 21.8 GVEO072F51 K15Bp8E C2014 12 08.58321 10 11 10.636+24 09 18.47 22.3 GVEO072F51 K15Bp8E C2014 12 08.59509 10 11 10.610+24 09 18.87 22.1 GVEO072F51 K15Bp8E C2014 12 08.60702 10 11 10.601+24 09 19.12 22.0 GVEO072F51 K15Bp8E C2014 12 18.65353 10 10 52.916+24 15 22.03 21.8 GVEO072F51 K15Bp8E C2016 01 03.46304 10 25 47.998+21 59 44.17 21.1 GVEO072F51 K15Bp8E C2016 01 03.47594 10 25 47.966+21 59 45.81 21.1 GVEO072F51 K15Bp8E C2016 01 03.48888 10 25 47.899+21 59 45.63 21.5 GVEO072F51 K15Bp8E C2016 01 03.50179 10 25 47.820+21 59 46.25 21.4 GVEO072F51 K15Bp8E C2016 01 14.45619 10 24 43.692+22 08 36.02 21.7 GVEO072F51 K15Bp8E C2016 01 14.45903 10 24 43.676+22 08 36.15 21.5 GVEO072F51 K15Bp8E C2016 01 14.46935 10 24 43.605+22 08 36.64 21.5 GVEO072F51 K15Bp8E C2016 01 14.47220 10 24 43.576+22 08 36.88 21.7 GVEO072F51 K15Bp8E C2016 01 14.48249 10 24 43.508+22 08 37.25 22.0 GVEO072F51 K15Bp8E C2016 01 14.48532 10 24 43.494+22 08 37.70 21.7 GVEO072F51 K15Bp8E C2016 01 14.49564 10 24 43.424+22 08 37.82 21.7 GVEO072F51 K15Bp8E C2016 01 14.49845 10 24 43.397+22 08 37.94 21.4 GVEO072F51 K15Bp8E C2016 01 21.43438 10 23 53.159+22 14 32.62 21.6 GVEO072F51 K15Bp8E C2016 01 21.44854 10 23 52.995+22 14 33.56 22.4 GVEO072F51 K15Bp8E C2016 01 21.46284 10 23 52.893+22 14 34.27 21.4 GVEO072F51 K15Bp8E C2016 01 21.47693 10 23 52.781+22 14 34.70 21.2 GVEO072F51 K15Bp8E C2016 02 03.41642 10 22 03.221+22 25 40.90 21.6 GVEO072F51 K15Bp8E C2016 02 03.42828 10 22 03.109+22 25 41.44 21.3 GVEO072F51 K15Bp8E C2016 02 03.44016 10 22 03.015+22 25 42.00 21.6 GVEO072F51 K15Bp8E C2016 02 03.45210 10 22 02.901+22 25 42.56 21.5 GVEO072F51 K15Bp8E C2016 02 05.38649 10 21 45.137+22 27 19.92 21.2 GVEO072F51 K15Bp8E C2016 02 05.38714 10 21 45.136+22 27 19.95 21.3 GVEO072F51 K15Bp8E C2016 02 05.39948 10 21 45.007+22 27 20.68 21.5 GVEO072F51 K15Bp8E C2016 02 05.40012 10 21 45.013+22 27 20.58 21.3 GVEO072F51 K15Bp8E C2016 02 05.41247 10 21 44.900+22 27 21.25 21.4 GVEO072F51 K15Bp8E C2016 02 05.41312 10 21 44.888+22 27 21.26 21.3 GVEO072F51 K15Bp8E C2016 02 05.42550 10 21 44.772+22 27 21.99 21.3 GVEO072F51 K15Bp8E C2016 02 05.42614 10 21 44.765+22 27 21.89 21.5 GVEO072F51 K15Bp8E C2016 02 06.55948 10 21 34.181+22 28 18.32 21.5 GVEO072F51 K15Bp8E C2016 02 06.57219 10 21 34.076+22 28 19.02 21.5 GVEO072F51 K15Bp8E C2016 02 06.58491 10 21 33.952+22 28 19.62 21.5 GVEO072F51 K15Bp8E C2016 02 06.59764 10 21 33.833+22 28 20.33 21.4 GVEO072F51 K15Bp8E C2016 02 26.53937 10 18 19.253+22 43 07.28 21.5 GVEO072F51 K15Bp8E C2016 03 11.29626 10 16 06.838+22 50 22.84 21.1 GVEO072F51 K15Bp8E C2016 03 11.31041 10 16 06.699+22 50 23.26 21.5 GVEO072F51 K15Bp8E C2016 03 11.32452 10 16 06.538+22 50 23.51 21.3 GVEO072F51 K15Bp8E C2016 03 11.33875 10 16 06.455+22 50 24.26 21.4 GVEO072F51 K15Bp8E C2016 04 03.24825 10 13 01.600+22 54 56.62 21.7 GVEO072F51 K15Bp8E C2016 04 03.25989 10 13 01.519+22 54 56.64 21.6 GVEO072F51 K15Bp8E C2016 04 03.27161 10 13 01.441+22 54 56.58 21.6 GVEO072F51 K15Bp8E C2016 04 03.28335 10 13 01.361+22 54 56.57 21.4 GVEO072F51 K15Bp8E C2016 04 21.35388 10 11 29.101+22 51 02.38 22.0 GVEO072F51 K15Bp8E C2016 04 21.36602 10 11 29.047+22 51 02.04 21.5 GVEO072F51 K15Bp8E C2016 04 21.37841 10 11 28.992+22 51 01.66 21.7 GVEO072F51 K15Bp8E C2016 04 21.39057 10 11 28.966+22 51 01.60 22.1 GVEO072F51 K15Bp8E C2016 05 06.29747 10 10 58.116+22 42 51.94 21.2 GVEO072F51 K15Bp8E C2016 05 06.29878 10 10 58.103+22 42 51.95 21.7 GVEO072F51 K15Bp8E C2016 05 06.30936 10 10 58.101+22 42 51.51 21.6 GVEO072F51 K15Bp8E C2016 05 06.31063 10 10 58.099+22 42 51.42 21.4 GVEO072F51 K15Bp8E C2016 05 06.32121 10 10 58.089+22 42 51.05 21.2 GVEO072F51 K15Bp8E C2016 05 06.32252 10 10 58.087+22 42 51.06 21.5 GVEO072F51 K15Bp8E C2016 05 06.33306 10 10 58.071+22 42 50.51 21.6 GVEO072F51 K15Bp8E C2016 05 06.33435 10 10 58.075+22 42 50.41 21.7 GVEO072F51 K15Bp8E C2017 01 04.48387 10 41 53.392+19 20 43.84 21.3 GVEO072F51 K15Bp8E C2017 01 04.49547 10 41 53.346+19 20 44.35 21.3 GVEO072F51 K15Bp8E C2017 01 04.50711 10 41 53.281+19 20 44.76 21.5 GVEO072F51 K15Bp8E C2017 01 04.51884 10 41 53.239+19 20 45.27 21.4 GVEO072F51 K15Bp8E C2017 01 31.57035 10 38 53.019+19 42 42.84 21.3 GVEO072F51 K15Bp8E C2017 01 31.58339 10 38 52.907+19 42 43.75 21.3 GVEO072F51 K15Bp8E C2017 01 31.59658 10 38 52.792+19 42 44.35 21.5 GVEO072F51 K15Bp8E C2017 01 31.60986 10 38 52.670+19 42 44.96 21.5 GVEO072F51 K15Bp8E C2017 02 24.51159 10 35 07.908+20 02 15.60 21.3 GVEO072F51 K15Bp8E C2017 02 24.52468 10 35 07.769+20 02 16.22 21.3 GVEO072F51 K15Bp8E C2017 02 24.53785 10 35 07.639+20 02 16.74 21.4 GVEO072F51 K15Bp8E C2017 02 24.55117 10 35 07.505+20 02 17.38 21.4 GVEO072F51 K15Bp8E C2017 03 17.29358 10 31 47.203+20 14 29.74 21.2 GVEO072F51 K15Bp8E C2017 03 17.30525 10 31 47.102+20 14 30.05 21.5 GVEO072F51 K15Bp8E C2017 03 17.31693 10 31 46.991+20 14 30.36 21.5 GVEO072F51 K15Bp8E C2017 03 17.32875 10 31 46.868+20 14 30.90 21.4 GVEO072F51 K15Bp8E C2017 03 28.24759 10 30 12.972+20 18 05.16 21.3 GVEO072F51 K15Bp8E C2017 03 28.25795 10 30 12.884+20 18 05.31 21.3 GVEO072F51 K15Bp8E C2017 03 28.26820 10 30 12.796+20 18 05.47 21.5 GVEO072F51 K15Bp8E C2017 03 28.27858 10 30 12.713+20 18 05.59 21.5 GVEO072F51 K15Bp8E C2017 04 16.35499 10 28 05.280+20 18 38.27 21.4 GVEO072F51 K15Bp8E C2017 04 16.36724 10 28 05.207+20 18 38.16 21.2 GVEO072F51 K15Bp8E C2017 04 16.37949 10 28 05.152+20 18 38.17 21.9 GVEO072F51 K15Bp8E C2017 04 16.39176 10 28 05.079+20 18 37.87 21.0 GVEO072F51 K15Bp8E C2017 12 31.54244 10 58 33.701+16 25 00.43 21.5 GVEO072F51 K15Bp8E C2017 12 31.55515 10 58 33.672+16 25 01.01 21.4 GVEO072F51 K15Bp8E C2017 12 31.56786 10 58 33.619+16 25 01.29 21.7 GVEO072F51 K15Bp8E C2017 12 31.58057 10 58 33.592+16 25 01.79 21.3 GVEO072F51 K15Bp8E C2018 03 06.30570 10 50 25.524+17 15 02.05 21.2 GVEO072F51 K15Bp8E C2018 03 06.31750 10 50 25.406+17 15 02.64 21.0 GVEO072F51 K15Bp8E C2018 03 06.32929 10 50 25.290+17 15 03.07 21.2 GVEO072F51 K15Bp8E C2018 03 06.34112 10 50 25.176+17 15 03.57 21.3 GVEO072F51 K15Bp8E C2018 12 18.58997 11 15 17.392+13 16 07.70 21.4 GVEO072F51 K15Bp8E C2018 12 18.60112 11 15 17.397+13 16 07.75 21.4 GVEO072F51 K15Bp8E C2018 12 18.61228 11 15 17.406+13 16 07.95 21.2 GVEO072F51 K15Bp8E C2018 12 18.62348 11 15 17.419+13 16 08.04 21.4 GVEO072F51 K15Bp8E C2019 01 11.51613 11 14 38.510+13 25 00.49 21.2 GVEO072F51 K15Bp8E C2019 01 11.52727 11 14 38.464+13 25 00.89 21.2 GVEO072F51 K15Bp8E C2019 01 11.53843 11 14 38.420+13 25 01.34 21.2 GVEO072F51 K15Bp8E C2019 01 11.54959 11 14 38.369+13 25 01.59 21.3 GVEO072F51 K15Bp8E C2019 04 02.27957 11 03 22.329+14 23 08.71 20.4 GVEO072F51 K15Bp8E C2019 04 02.29140 11 03 22.223+14 23 08.91 20.9 GVEO072F51 K15Bp8E C2019 04 02.30316 11 03 22.111+14 23 09.23 21.0 GVEO072F51 K15Bp8E C2019 04 02.31488 11 03 22.007+14 23 09.50 21.0 GVEO072F51 K15Bp8E C2019 04 07.25276 11 02 41.422+14 24 52.54 21.4 GVEO072F51 K15Bp8E C2019 04 07.26309 11 02 41.340+14 24 52.75 21.2 GVEO072F51 K15Bp8E C2019 04 07.27345 11 02 41.255+14 24 52.97 21.3 GVEO072F51 K15Bp8E C2019 04 07.28387 11 02 41.174+14 24 53.14 21.3 GVEO072F51 Observer details: F51 Pan-STARRS 1, Haleakala. Observers J. Bulger, K. Chambers, B. Gibson, T. Goggia, T. Lowe, E. Magnier, N. Primak, A. Schultz, J. Thiel, S. Watters, M. Willman. Measurers S. Chastel, M. Huber, R. Jedicke, R. Wainscoat, R. Weryk, K. Chambers, Y.-T. Chen, L. Denneau, H. Flewelling, M. Holman, M. Lackner, E. Lilly, H.-W. Lin, E. Magnier, M. Micheli, M. Payne, P. Veres, C. Waters. 1.8-m Ritchey-Chretien + CCD. Orbital elements: 2015 BE518 Epoch 2020 May 31.0 TT = JDT 2459000.5 Veres M 343.84014 (2000.0) P Q n 0.00611908 Peri. 202.31408 -0.86027244 +0.50804973 a 29.6036495 Node 8.60234 -0.41407139 -0.64746373 e 0.4338726 Incl. 16.55675 -0.29744950 -0.56804594 P 161.07 H 8.6 G 0.15 U 0 Residuals in seconds of arc 110115 F51 0.1- 0.2- 160103 F51 0.1+ 0.7+ 160506 F51 0.0 0.0 110115 F51 0.1- 0.3+ 160103 F51 0.1+ 0.1- 170104 F51 0.2+ 0.1+ 120228 F51 0.0 0.0 160103 F51 0.1- 0.1- 170104 F51 0.3+ 0.1+ 120228 F51 0.1+ 0.1- 160114 F51 0.0 0.1+ 170104 F51 0.1+ 0.0 121227 F51 0.0 0.2- 160114 F51 0.0 0.1+ 170104 F51 0.3+ 0.0 130103 F51 0.0 0.1- 160114 F51 0.0 0.0 170131 F51 0.1+ 0.2- 130103 F51 0.2- 0.3- 160114 F51 0.1- 0.1+ 170131 F51 0.1+ 0.0 130110 F51 0.5+ 0.1+ 160114 F51 0.1- 0.0 170131 F51 0.1+ 0.0 130110 F51 0.0 0.9+ 160114 F51 0.0 0.3+ 170131 F51 0.0 0.1- 130221 F51 0.0 0.3- 160114 F51 0.0 0.1- 170224 F51 0.1+ 0.0 130221 F51 0.1+ 0.2+ 160114 F51 0.1- 0.2- 170224 F51 0.0 0.0 131122 F51 0.1+ 0.1+ 160121 F51 0.3+ 0.0 170224 F51 0.0 0.0 131217 F51 0.1+ 0.1+ 160121 F51 0.4- 0.2+ 170224 F51 0.0 0.1+ 131217 F51 0.0 0.6- 160121 F51 0.2- 0.2+ 170317 F51 0.1- 0.0 140325 F51 0.3- 0.1- 160121 F51 0.3- 0.1- 170317 F51 0.0 0.0 140325 F51 0.3- 0.1- 160203 F51 0.3- 0.1+ 170317 F51 0.1- 0.0 140325 F51 0.1- 0.1- 160203 F51 0.3- 0.0 170317 F51 0.2- 0.2+ 140325 F51 0.1- 0.1+ 160203 F51 0.1- 0.1- 170328 F51 0.0 0.0 140607 F51 0.0 0.2+ 160203 F51 0.1- 0.1- 170328 F51 0.0 0.0 140607 F51 0.1+ 0.2- 160205 F51 0.0 0.0 170328 F51 0.1- 0.0 140607 F51 0.3+ 0.5- 160205 F51 0.0 0.0 170328 F51 0.1- 0.0 141208 F51 0.4+ 0.1+ 160205 F51 0.2- 0.1+ 170416 F51 0.0 0.1- 141208 F51 0.1+ 0.0 160205 F51 0.0 0.0 170416 F51 0.1- 0.0 141208 F51 0.1- 0.0 160205 F51 0.1+ 0.0 170416 F51 0.0 0.1+ 141208 F51 0.1- 0.1- 160205 F51 0.0 0.0 170416 F51 0.1- 0.1- 141218 F51 0.1+ 0.1+ 160205 F51 0.0 0.1+ 171231 F51 0.1- 0.2- 150127 F51 0.1- 0.0 160205 F51 0.0 0.1- 171231 F51 0.0 0.0 150127 F51 0.0 0.0 160206 F51 0.1- 0.1- 171231 F51 0.2- 0.1- 150127 F51 0.0 0.1- 160206 F51 0.1+ 0.0 171231 F51 0.0 0.0 150127 F51 0.1- 0.1+ 160206 F51 0.1+ 0.0 180306 F51 0.0 0.0 150129 F51 0.0 0.0 160206 F51 0.1+ 0.1+ 180306 F51 0.0 0.1+ 150129 F51 0.1+ 0.1- 160226 F51 0.0 0.2- 180306 F51 0.0 0.0 150129 F51 0.0 0.0 160311 F51 0.3+ 0.1- 180306 F51 0.1+ 0.0 150129 F51 0.0 0.1- 160311 F51 0.3+ 0.0 181218 F51 0.0 0.0 150217 F51 0.0 0.0 160311 F51 0.1- 0.1- 181218 F51 0.1- 0.0 150217 F51 0.2- 0.1+ 160311 F51 0.6+ 0.3+ 181218 F51 0.0 0.1+ 150217 F51 0.0 0.2+ 160403 F51 0.0 0.0 181218 F51 0.1+ 0.1+ 150217 F51 0.2+ 0.1+ 160403 F51 0.0 0.0 190111 F51 0.0 0.0 150218 F51 0.2- 0.1+ 160403 F51 0.0 0.0 190111 F51 0.0 0.0 150218 F51 0.1- 0.2+ 160403 F51 0.0 0.0 190111 F51 0.0 0.1+ 150218 F51 0.0 0.0 160421 F51 0.0 0.0 190111 F51 0.0 0.0 150218 F51 0.0 0.1+ 160421 F51 0.1- 0.1- 190402 F51 0.3+ 0.0 150316 F51 0.1+ 0.0 160421 F51 0.3- 0.1- 190402 F51 0.2+ 0.1- 150316 F51 0.1+ 0.1- 160421 F51 0.0 0.1+ 190402 F51 0.1+ 0.0 150316 F51 0.1+ 0.0 160506 F51 0.2+ 0.0 190402 F51 0.0 0.0 150316 F51 0.1+ 0.0 160506 F51 0.0 0.0 190407 F51 0.1- 0.0 150317 F51 0.1+ 0.1- 160506 F51 0.1+ 0.0 190407 F51 0.1- 0.0 150317 F51 0.0 0.3+ 160506 F51 0.1+ 0.0 190407 F51 0.1- 0.0 150317 F51 0.1+ 0.1- 160506 F51 0.1+ 0.1+ 190407 F51 0.1- 0.0 150317 F51 0.0 0.1- 160506 F51 0.0 0.1+ 160103 F51 0.4- 0.4- 160506 F51 0.1- 0.0 Ephemeris: 2015 BE518 a,e,i = 29.60, 0.43, 17 q = 16.7594 Date TT R. A. (2000) Decl. Delta r Elong. Phase V 2020 06 23 11 17 25.3 +10 38 37 18.4575 18.2104 74.4 3.1 21.5 ... 2020 07 08 11 19 06.2 +10 19 48 18.6714 18.1950 60.7 2.8 21.5 ... 2020 07 16 11 20 15.3 +10 08 25 18.7742 18.1868 53.4 2.6 21.5 ... 2020 07 22 11 21 13.3 +09 59 22 18.8447 18.1807 48.0 2.4 21.5 2020 07 23 11 21 23.5 +09 57 50 18.8558 18.1797 47.1 2.3 21.5 2020 07 24 11 21 33.8 +09 56 16 18.8668 18.1787 46.2 2.3 21.5 ... 2020 07 30 11 22 38.4 +09 46 43 18.9285 18.1725 40.8 2.1 21.5 ... 2020 08 07 11 24 10.9 +09 33 31 18.9994 18.1644 33.7 1.8 21.5 ... 2020 08 22 11 27 21.0 +09 07 42 19.0935 18.1492 20.4 1.1 21.5 A. U. Tomatic (C) Copyright 2020 MPC M.P.E.C. 2020-O72
